Wind_Speed
4 5 4 4 4 5 5 5 5 4 4 4 4 4 3 3 4 4 4 4 4 4 4 4 5 5 5 5 5 5 4 4 4 4 3 3 3 3 3 3 3 3 3
4 4 4 3 4 4 4 4 4 3 3 3 3 3 2 3 3 3 3 4 4 4 4 4 4 5 4 5 6 5 5 5 4 4 4 3 3 3 3 3 3 3 3
3 3 2 2 2 3 2 3 3 3 3 2 2 2 2 2 2 3 3 3 3 3 4 4 5 5 5 5 6 6 5 5 5 5 4 4 4 4 4 4 4 4 4
3 2 2 2 2 2 2 2 2 3 3 2 2 2 2 2 2 3 3 3 3 4 4 4 5 5 5 6 6 6 6 6 6 6 5 5 5 4 4 4 4 4 5
2 1 1 1 1 1 1 2 2 3 2 2 2 3 3 3 3 4 4 4 4 4 4 4 5 5 6 6 6 6 6 6 6 6 5 6 6 5 5 5 5 5 5
1 1 0 1 1 1 2 2 3 3 3 3 3 4 4 4 5 5 5 5 5 5 5 5 5 6 6 6 6 6 6 6 6 6 6 6 6 6 6 5 6 5 6
2 1 1 1 2 2 3 3 3 4 4 4 4 4 5 5 6 6 6 6 6 6 5 5 6 7 7 7 7 7 7 7 7 7 7 7 7 7 7 7 7 6 6
3 2 3 3 3 3 4 4 4 4 5 5 5 5 6 6 7 7 7 7 7 7 6 7 7 7 7 8 7 7 7 7 7 8 8 8 7 7 7 8 8 7 7
5 4 4 5 5 5 4 5 5 5 6 6 6 6 7 7 7 7 7 7 7 7 7 7 7 8 8 8 8 8 8 8 8 8 8 8 7 8 8 8 8 8 8
6 6 6 6 6 6 6 6 6 7 7 7 7 7 7 7 7 7 8 8 8 8 8 8 8 8 9 9 9 8 8 8 8 8 8 8 8 8 8 8 8 8 8
7 8 8 7 7 7 7 7 7 7 7 7 7 8 8 8 8 8 9 10 10 9 8 8 9 9 9 10 10 9 9 9 8 8 8 8 8 8 9 9 9 9 9
8 8 8 8 8 8 8 8 8 8 8 8 8 9 9 10 10 10 9 10 10 10 9 9 10 10 10 10 10 10 9 9 9 9 8 8 8 9 9 9 9 9 9
8 9 8 8 8 8 8 9 8 8 8 9 10 10 10 11 11 11 10 10 10 10 10 10 10 11 11 11 10 10 10 9 9 9 8 8 8 8 9 9 9 9 9
9 9 9 9 9 9 8 8 8 9 9 10 10 10 11 11 11 11 11 10 10 11 11 11 11 11 11 10 11 10 10 10 9 9 8 9 9 9 9 9 9 9 9
10 10 10 10 10 9 9 9 10 10 10 11 11 11 11 11 11 11 12 12 11 11 11 11 11 10 10 10 10 10 10 10 9 9 9 9 9 9 9 9 8 8 8
11 11 11 11 11 11 10 11 11 12 11 11 11 11 11 11 12 11 12 12 12 11 11 11 10 10 10 10 10 10 10 10 9 10 9 9 10 10 10 9 9 9 9
11 11 11 11 11 12 11 12 13 13 12 12 11 11 12 12 12 11 11 11 11 11 10 10 10 10 10 10 10 10 10 10 10 9 9 9 10 10 10 9 10 9 9
11 11 11 11 11 12 12 12 13 13 13 12 12 11 12 12 12 12 11 10 10 11 11 10 10 10 11 11 10 10 10 10 10 10 10 10 10 10 10 10 9 9 9
11 11 12 12 12 11 11 12 12 12 12 12 12 12 12 12 12 12 12 11 11 11 11 11 11 11 11 11 12 11 11 11 11 11 11 11 11 11 10 10 10 10 9
12 12 12 12 12 11 11 11 11 11 11 11 11 12 12 12 12 12 12 12 11 12 12 12 12 12 12 12 12 12 12 12 12 12 12 11 11 11 11 10 10 10 10
11 12 11 11 11 11 11 11 11 11 11 11 12 12 12 12 12 13 12 12 12 12 12 13 13 13 12 12 12 13 13 13 13 12 12 12 11 11 11 10 10 11 10
11 11 11 11 11 11 10 11 11 11 12 12 12 12 12 12 13 13 13 13 12 12 13 13 13 14 14 13 13 13 13 13 13 13 13 12 12 12 11 11 11 11 11
11 12 12 12 12 12 12 12 12 12 12 12 12 12 12 12 12 13 13 12 12 13 13 14 14 14 13 13 13 12 12 12 12 12 12 12 12 12 13 13 13 13 12
11 11 12 13 13 13 13 13 13 13 12 12 12 12 12 12 11 11 12 12 13 13 14 14 14 13 14 14 13 13 12 12 12 12 13 13 13 13 13 13 13 13 12
12 12 12 12 13 12 13 14 14 13 13 12 12 12 12 12 11 11 11 12 12 13 14 14 13 13 14 13 13 13 13 12 13 13 13 13 13 13 13 14 13 13 13
13 13 13 13 13 13 13 13 13 13 13 12 12 12 12 12 12 12 11 12 12 12 13 13 13 14 14 13 13 13 13 13 13 13 13 13 13 13 14 14 14 14 14
Wind_Direction
89 95 100 97 86 82 81 80 80 76 72 73 72 66 62 51 43 38 34 29 25 26 23 16 18 15 9 4 360 354 352 351 346 340 338 327 317 315 316 317 304 300 296
83 92 97 93 88 80 73 72 68 63 63 71 64 58 57 47 40 30 22 19 19 20 14 10 5 3 355 351 350 347 344 340 337 332 328 321 311 307 304 301 296 292 292
71 84 88 88 79 72 64 58 49 48 43 53 54 43 29 15 16 3 355 358 357 360 357 354 351 349 345 340 338 336 333 330 326 322 319 318 312 303 300 296 287 289 288
65 85 91 81 70 55 49 31 23 24 21 22 15 359 345 336 338 340 331 329 332 337 336 338 336 337 336 332 328 327 327 325 322 315 311 310 308 300 299 297 291 292 293
57 90 86 43 30 8 344 341 351 352 351 340 335 328 322 309 307 312 312 312 317 322 323 328 328 329 331 331 328 326 322 322 322 315 309 306 304 301 296 294 292 292 291
24 48 8 22 7 324 318 325 335 340 339 323 303 301 304 298 295 297 304 306 308 312 315 318 320 323 323 322 322 320 315 314 314 312 308 303 298 297 292 291 290 290 289
308 294 273 282 306 308 312 316 312 317 313 313 304 291 291 295 292 287 293 299 302 304 303 305 311 317 317 318 316 313 311 311 309 308 303 297 293 291 290 288 288 289 290
283 282 282 275 278 286 288 296 299 303 304 303 308 299 292 291 288 284 288 291 294 297 296 298 302 308 311 311 310 309 307 308 304 304 302 298 293 291 292 288 287 289 291
271 274 282 278 275 277 278 286 288 292 297 298 299 300 297 295 291 289 289 290 291 292 292 296 296 301 303 305 305 305 305 303 298 301 303 300 293 292 291 288 285 287 290
273 276 280 271 269 269 270 275 281 283 288 294 291 290 294 297 293 292 291 289 287 286 287 291 291 296 301 300 300 302 301 299 299 302 302 300 294 291 288 289 286 285 287
273 278 279 270 268 272 273 272 276 278 278 284 287 285 286 289 289 289 288 285 284 282 284 286 287 289 297 300 299 297 297 298 300 300 300 298 294 293 293 291 286 284 283
277 276 276 275 273 273 275 274 275 275 277 283 286 283 282 285 288 289 288 286 283 282 283 282 284 288 294 298 299 297 296 296 298 297 296 294 293 295 295 293 289 286 285
275 276 275 274 273 278 279 276 275 279 280 283 283 282 281 283 283 284 287 286 282 282 282 282 284 287 290 292 294 294 295 296 296 294 294 295 297 299 300 298 293 289 285
272 274 279 277 274 276 278 275 279 284 286 285 283 283 285 284 281 281 283 286 286 284 282 281 284 287 289 291 290 289 291 295 296 293 294 295 297 299 298 298 297 292 288
271 273 274 278 279 274 273 277 281 286 289 287 284 284 285 285 284 283 282 284 285 286 282 279 282 285 288 289 288 286 289 292 293 293 293 294 297 299 301 299 300 297 293
272 272 274 273 276 274 274 276 279 281 282 282 279 279 281 281 282 284 282 283 286 286 280 277 281 282 285 286 286 288 290 290 290 291 292 294 295 296 297 297 301 297 292
272 273 272 270 271 274 275 276 279 280 279 279 279 277 279 278 278 279 281 281 282 280 274 274 277 281 285 285 283 287 289 288 286 287 291 294 294 292 292 293 296 293 292
274 274 275 274 273 274 275 275 277 279 276 278 276 275 277 279 280 279 277 277 278 274 272 274 279 283 285 287 285 287 289 287 286 284 288 292 292 291 291 291 292 294 293
272 273 275 276 274 276 276 275 276 276 274 276 274 274 275 277 277 274 272 274 274 271 275 280 280 284 286 286 286 285 287 286 286 284 285 289 290 292 291 290 291 292 293
272 273 273 273 273 274 275 275 275 273 273 273 273 273 276 277 276 272 272 273 271 271 275 280 282 284 286 288 285 283 285 286 286 284 285 287 288 290 290 290 289 289 290
273 273 272 269 270 274 277 275 275 273 272 272 274 272 274 276 276 274 273 273 273 271 274 278 282 283 284 284 283 282 285 286 285 283 282 281 284 288 288 288 288 289 289
272 272 271 270 273 275 277 275 272 274 276 276 275 271 272 274 274 275 273 273 272 272 275 278 281 282 284 283 283 284 283 284 283 281 281 282 283 283 283 285 287 287 287
272 272 271 270 272 273 274 274 272 275 277 278 274 273 273 271 274 276 273 273 274 275 276 278 281 283 286 283 282 284 283 284 285 285 285 286 285 283 281 283 286 284 285
274 270 270 271 274 274 271 273 275 276 276 276 274 275 275 272 274 275 271 273 274 275 278 282 282 285 287 284 283 283 283 283 283 283 284 286 286 285 283 284 284 285 285
272 274 274 275 274 274 274 273 274 274 273 273 273 273 273 273 272 274 276 276 276 277 281 282 283 286 287 285 283 283 283 284 283 281 282 286 287 286 285 285 285 285 285
275 277 278 278 276 276 276 275 275 275 272 272 272 269 271 273 272 273 277 280 280 278 280 282 283 285 284 283 282 285 284 285 285 282 283 283 286 287 286 285 285 284 283
Height
5884 5884 5884 5884 5884 5884 5884 5884 5884 5884 5884 5884 5884 5885 5885 5885 5886 5886 5886 5886 5886 5886 5885 5885 5885 5884 5884 5883 5883 5883 5882 5882 5881 5881 5880 5880 5880 5880 5880 5879 5879 5879 5879
5885 5884 5885 5885 5885 5885 5884 5884 5884 5884 5884 5884 5884 5885 5885 5886 5886 5886 5886 5886 5886 5886 5886 5885 5885 5884 5884 5883 5883 5882 5882 5881 5881 5880 5880 5880 5879 5879 5879 5879 5878 5878 5878
5885 5885 5885 5885 5885 5885 5885 5885 5884 5884 5884 5884 5885 5885 5885 5886 5886 5886 5886 5886 5886 5886 5885 5885 5885 5884 5883 5883 5882 5882 5881 5881 5880 5880 5879 5879 5879 5878 5878 5877 5877 5877 5877
5886 5885 5885 5885 5885 5885 5885 5885 5884 5884 5884 5885 5885 5885 5885 5885 5886 5886 5886 5886 5885 5885 5885 5885 5884 5884 5883 5883 5882 5881 5880 5880 5880 5879 5879 5878 5878 5877 5877 5877 5876 5876 5876
5886 5886 5886 5886 5885 5885 5885 5885 5885 5884 5884 5884 5885 5885 5885 5885 5885 5885 5885 5885 5885 5885 5884 5884 5884 5883 5882 5882 5881 5880 5880 5879 5879 5878 5878 5877 5877 5876 5876 5876 5875 5875 5875
5886 5886 5886 5885 5885 5885 5885 5885 5885 5884 5884 5884 5884 5884 5884 5885 5885 5885 5885 5884 5884 5884 5884 5883 5883 5882 5882 5881 5880 5880 5879 5878 5878 5877 5877 5876 5876 5875 5875 5875 5874 5874 5873
5886 5886 5885 5885 5885 5884 5884 5884 5884 5884 5884 5883 5883 5883 5884 5884 5884 5884 5884 5883 5883 5883 5883 5882 5882 5881 5881 5880 5879 5879 5878 5877 5877 5876 5875 5875 5874 5874 5874 5873 5873 5872 5872
5885 5885 5885 5884 5884 5884 5884 5884 5883 5883 5883 5883 5883 5883 5882 5882 5883 5883 5883 5882 5882 5882 5881 5881 5881 5880 5880 5879 5878 5878 5877 5876 5876 5875 5874 5873 5873 5872 5872 5872 5871 5871 5871
5884 5884 5884 5883 5883 5883 5883 5883 5882 5882 5882 5882 5882 5882 5881 5881 5881 5881 5881 5881 5881 5881 5880 5880 5879 5879 5878 5878 5877 5876 5875 5875 5874 5873 5873 5872 5871 5871 5870 5870 5870 5869 5869
5883 5883 5883 5882 5882 5882 5882 5881 5881 5881 5881 5881 5880 5880 5880 5880 5880 5880 5880 5880 5880 5879 5879 5878 5878 5877 5877 5876 5875 5875 5874 5873 5873 5872 5871 5870 5870 5869 5869 5868 5868 5867 5867
5882 5882 5881 5881 5881 5880 5880 5880 5880 5879 5879 5879 5879 5879 5879 5879 5879 5879 5879 5878 5878 5878 5877 5877 5876 5876 5875 5875 5874 5873 5872 5872 5871 5870 5870 5869 5868 5868 5867 5866 5866 5865 5865
5880 5880 5880 5879 5879 5879 5879 5878 5878 5878 5878 5878 5877 5877 5877 5877 5877 5877 5877 5877 5876 5876 5876 5875 5874 5874 5874 5873 5872 5872 5871 5870 5870 5869 5868 5867 5867 5866 5865 5864 5864 5863 5863
5879 5878 5878 5878 5877 5877 5877 5876 5876 5876 5876 5876 5876 5875 5875 5875 5875 5875 5875 5874 5874 5874 5873 5873 5873 5872 5872 5871 5870 5870 5869 5868 5868 5867 5867 5866 5865 5864 5863 5862 5861 5861 5861
5876 5876 5876 5876 5876 5875 5875 5875 5874 5874 5874 5874 5873 5873 5873 5873 5873 5872 5872 5872 5872 5872 5871 5871 5871 5870 5870 5869 5868 5868 5867 5867 5866 5865 5865 5864 5863 5862 5861 5860 5859 5859 5859
5874 5874 5874 5873 5873 5873 5873 5873 5872 5872 5872 5872 5871 5871 5871 5871 5870 5870 5870 5869 5869 5869 5869 5869 5868 5868 5867 5867 5866 5866 5865 5865 5864 5863 5863 5862 5861 5860 5859 5858 5857 5857 5857
5872 5872 5872 5871 5871 5871 5871 5870 5870 5870 5870 5869 5869 5869 5868 5868 5868 5868 5868 5867 5867 5867 5867 5866 5866 5866 5865 5865 5864 5864 5863 5862 5862 5861 5861 5860 5859 5858 5857 5856 5856 5855 5855
5870 5869 5869 5869 5868 5868 5868 5868 5868 5868 5867 5867 5866 5866 5866 5866 5866 5865 5865 5865 5865 5864 5864 5864 5864 5864 5863 5863 5862 5861 5861 5860 5859 5859 5858 5858 5857 5856 5855 5855 5854 5853 5853
5867 5867 5867 5866 5866 5866 5866 5865 5865 5865 5864 5864 5864 5863 5863 5863 5863 5863 5863 5863 5862 5862 5862 5862 5861 5861 5861 5860 5860 5859 5858 5858 5857 5856 5856 5855 5855 5854 5853 5853 5852 5851 5850
5865 5864 5864 5864 5864 5863 5863 5862 5862 5862 5861 5861 5861 5861 5861 5861 5860 5860 5860 5860 5860 5860 5859 5859 5859 5859 5858 5858 5857 5857 5856 5855 5854 5854 5853 5853 5852 5851 5851 5850 5849 5849 5848
5862 5862 5862 5861 5861 5861 5860 5860 5859 5859 5859 5858 5858 5858 5858 5858 5857 5857 5857 5857 5857 5857 5857 5857 5856 5856 5855 5855 5854 5854 5853 5852 5852 5851 5850 5850 5849 5849 5848 5848 5847 5847 5846
5859 5859 5859 5858 5858 5858 5857 5857 5857 5856 5856 5856 5855 5855 5855 5855 5855 5854 5855 5855 5855 5854 5854 5854 5853 5853 5852 5852 5851 5851 5850 5849 5849 5848 5848 5847 5846 5846 5846 5845 5844 5844 5843
5856 5856 5856 5855 5855 5854 5854 5854 5854 5854 5853 5853 5852 5852 5852 5852 5852 5852 5852 5852 5851 5851 5851 5851 5850 5850 5849 5849 5848 5848 5847 5847 5846 5845 5845 5844 5844 5843 5843 5842 5842 5841 5841
5853 5853 5853 5852 5852 5852 5851 5851 5851 5850 5850 5850 5850 5849 5849 5849 5849 5849 5849 5849 5848 5848 5848 5848 5847 5846 5846 5846 5845 5845 5844 5844 5843 5843 5842 5842 5841 5841 5840 5839 5839 5838 5838
5849 5849 5849 5849 5848 5848 5848 5848 5848 5847 5847 5847 5846 5846 5846 5846 5846 5846 5846 5845 5845 5845 5845 5844 5844 5844 5843 5842 5842 5842 5841 5841 5840 5840 5839 5838 5838 5837 5837 5836 5836 5835 5835
5846 5846 5845 5845 5845 5845 5845 5844 5844 5844 5843 5843 5843 5843 5843 5843 5843 5843 5843 5843 5842 5842 5842 5841 5841 5841 5840 5839 5839 5838 5838 5837 5837 5837 5836 5836 5835 5834 5833 5833 5832 5832 5831
5843 5842 5842 5842 5841 5841 5841 5841 5841 5840 5840 5840 5840 5840 5840 5840 5840 5840 5840 5840 5840 5839 5839 5838 5838 5837 5837 5836 5836 5835 5834 5834 5833 5833 5833 5832 5832 5831 5830 5829 5829 5828 5828